#timestamp,LO_Frequency,Hit 
1505196015.8,286047001.0,N
1505196035.6,286046998.7,N
1505196055.4,286046996.3,P
1505196075.3,286046995.3,N
1505196095.1,286046998.7,N
1505196115.8,286046998.2,N
1505196135.7,286046999.3,N
1505196155.5,286046999.4,N
1505196175.3,286047000.1,N
1505196195.2,286047001.1,N
1505196215.9,286047000.1,N
1505196235.7,286047000.8,N
1505196255.6,286046999.4,N
1505196275.4,286047000.2,N
1505196295.2,286047000.6,N
1505196315.0,286047000.3,N
1505196315.9,286047000.3,N
1505196335.8,286047000.4,N
1505196355.6,286046999.5,N
1505196375.4,286046997.7,N
1505196395.3,286046997.4,N
1505196415.1,286046997.2,N
1505196435.8,286046999.6,N
1505196455.7,286046998.7,N
1505196475.5,286046998.2,N
1505196495.3,286046999.2,N
1505196515.2,286046999.5,N
1505196535.9,286047000.4,N
1505196555.7,286046997.2,N
1505196575.6,286046998.1,N
1505196595.4,286046996.6,N
1505196615.2,286046996.6,N
1505196635.0,286046998.6,N
1505196635.9,286046998.6,N
1505196655.8,286046997.0,N
1505196675.6,286046999.5,N
1505196695.4,286046999.4,N
1505196715.3,286046999.2,N
1505196735.1,286047000.4,N
1505196755.8,286047002.3,N
1505196775.7,286046999.3,N
1505196795.5,286046997.3,N
1505196815.3,286046997.0,N
1505196835.2,286046995.4,P
1505196855.9,286046997.5,N
1505196875.7,286046994.9,P
1505196895.6,286046997.7,N
1505196915.4,286046997.9,N
1505196935.2,286046996.7,N
1505196955.1,286046997.6,N
1505196956.0,286046997.6,N
1505196975.8,286046995.8,P
1505196995.6,286046996.6,P
1505197015.5,286046999.2,N
1505197035.3,286046999.6,N
1505197055.1,286046998.9,N
1505197075.9,286046998.4,N
1505197095.7,286047000.1,N
1505197115.5,286047001.1,N
1505197135.4,286047001.3,N
1505197155.2,286047001.9,N
1505197175.0,286047001.5,N
1505197175.9,286047001.5,N
1505197195.8,286046999.1,N
1505197215.6,286046998.2,N
1505197235.4,286046997.3,N
1505197255.2,286046999.3,N
1505197275.1,286046998.3,N
1505197276.0,286046998.3,N
1505197295.8,286047000.3,N
1505197315.6,286047000.5,N
1505197335.5,286046998.5,N
1505197355.3,286047000.5,N
1505197375.1,286046999.1,N
1505197395.9,286046997.2,N
1505197415.7,286047001.1,N
1505197435.5,286046997.0,N
1505197455.4,286046998.1,N
1505197475.2,286047000.5,N
1505197495.0,286046996.6,N
1505197495.9,286046996.6,N
1505197515.8,286046999.1,N
1505197535.6,286046997.1,N
1505197555.4,286046997.3,N
1505197575.2,286046996.7,N
1505197595.1,286046998.0,N
1505197596.0,286046998.0,N
1505197615.8,286046997.3,N
1505197635.6,286046999.5,N
1505197655.5,286046997.3,N
1505197675.3,286046995.5,N
1505197695.1,286046997.7,N
1505197715.9,286046997.9,N
1505197735.7,286046999.6,N
1505197755.5,286047000.6,N
1505197775.4,286047000.6,N
1505197795.2,286046999.8,N
1505197815.0,286047001.0,N
1505197815.9,286047001.0,N
1505197835.8,286047002.0,N
1505197855.6,286047001.9,N
1505197875.4,286047002.8,N
1505197895.3,286047000.4,N
1505197915.1,286047002.0,N
1505197916.0,286047002.0,N
1505197935.8,286047002.2,N
1505197955.6,286046999.9,N
1505197975.5,286047001.3,N
1505197995.3,286047003.6,N
1505198015.1,286047000.3,N
1505198035.9,286047000.9,N
1505198055.7,286047000.7,N
1505198075.5,286046996.6,N
1505198095.4,286046997.3,N
1505198115.2,286046997.8,N
1505198135.0,286046996.7,N
1505198135.9,286046996.7,N
1505198155.8,286046998.9,N
1505198175.6,286047001.2,N
1505198195.4,286047002.1,N
1505198215.3,286047003.2,N
1505198235.1,286047002.7,N
1505198236.0,286047002.7,N
1505198255.8,286047005.9,P
1505198275.7,286047003.0,N
1505198295.5,286047003.5,N
1505198315.3,286047003.9,N
1505198335.2,286047005.6,P
1505198355.9,286047002.8,N
1505198375.7,286047002.6,N
1505198395.6,286046999.2,N
1505198415.4,286046997.8,N
1505198435.2,286046997.3,N
1505198455.1,286046997.5,N
1505198456.0,286046997.5,N
1505198475.8,286046998.9,N
1505198495.6,286046997.1,N
1505198515.5,286046996.4,N
1505198535.3,286046995.2,N
1505198555.1,286046995.2,N
1505198575.8,286046999.0,N
1505198595.7,286046998.4,N
1505198615.5,286046995.7,N
1505198635.3,286046995.9,N
1505198655.2,286046998.0,N
1505198675.9,286046996.5,N
1505198695.7,286046996.9,N
1505198715.6,286046997.0,N
1505198735.4,286046998.8,N
1505198755.2,286046999.2,N
1505198775.1,286046999.5,N
1505198776.0,286046999.5,N
1505198795.8,286047001.2,N
1505198815.6,286047000.6,N
1505198835.5,286047001.0,N
1505198855.3,286046998.1,N
1505198875.1,286046996.5,N
1505198895.8,286046999.6,N
1505198915.7,286046996.7,N
1505198935.5,286046995.8,N
1505198955.3,286046998.7,N
1505198975.2,286047001.3,N
1505198995.9,286047004.4,N
1505199015.7,286047002.1,N
1505199035.6,286047002.4,N
1505199055.4,286047003.2,N
1505199075.2,286047002.8,N
1505199095.1,286046996.9,N
1505199096.0,286046996.9,N
1505199115.8,286047000.8,N
1505199135.6,286046998.2,N
1505199155.5,286046997.0,N
1505199175.3,286046998.9,N
1505199195.1,286047001.0,N
1505199215.8,286046998.8,N
1505199235.7,286046997.0,N
1505199255.5,286046996.2,N
1505199275.3,286046996.1,N
1505199295.2,286046998.5,N
1505199315.9,286046997.7,N
1505199335.7,286046997.0,N
1505199355.6,286047001.1,N
1505199375.4,286046999.1,N
1505199395.2,286046997.6,N
1505199415.1,286046995.6,N
1505199416.0,286046995.6,N
1505199435.8,286046993.4,N
1505199455.6,286046997.3,N
1505199475.5,286046997.2,N
1505199495.3,286046997.4,N
1505199515.1,286046997.9,N
1505199535.8,286046998.9,N
1505199555.7,286046999.5,N
1505199575.5,286046998.8,N
1505199595.3,286046999.0,N
